Regional Weather Roundup
Issued by NWS

Home | Current Version | Previous Version | Text Only | Print | Product List | Glossary On
Versions: 1 2 3 4 5 6 7 8 9 10 11 12 13 14 15 16 17 18 19 20 21 22 23 24 25 26 27 28 29 30 31 32 33 34 35 36 37 38 39 40 41 42 43 44 45 46 47 48 49 50
000
ASUS43 KBIS 230359
RWRND

NORTH DAKOTA REGIONAL WEATHER ROUNDUP
NATIONAL WEATHER SERVICE BISMARCK ND
1000 PM CST MON DEC 22 2014

NOTE: "FAIR" INDICATES FEW OR NO CLOUDS BELOW 12,000 FEET WITH NO
SIGNIFICANT WEATHER AND/OR OBSTRUCTIONS TO VISIBILITY.


NDZ001>003-009>011-017-230500-
NORTHWEST NORTH DAKOTA

CITY           SKY/WX    TMP DP  RH WIND       PRES   REMARKS
WILLISTON      CLOUDY    26  21  81 N15       29.90R WCI  14
MINOT          CLOUDY    30  28  92 N16       29.81R FOG     WCI  19
$$

NDZ018>021-031>035-040>046-230500-
SOUTHWEST NORTH DAKOTA

CITY           SKY/WX    TMP DP  RH WIND       PRES   REMARKS
BISMARCK       LGT SNOW  30  28  92 N16G22    29.73R FOG     WCI  19
GARRISON         N/A     29  28  96 N18       29.78R WCI  16
HETTINGER ARPT LGT SNOW  24  20  84 NW22G29   29.78R FOG     WCI   9
$$

NDZ004>008-012>016-024-026-027-054-230500-
NORTHEAST NORTH DAKOTA

CITY           SKY/WX    TMP DP  RH WIND       PRES   REMARKS
GRAND FORKS    DRIZZLE   35  34  96 NE8       29.72R FOG
DEVILS LAKE    CLOUDY    34  30  86 NE12      29.73R
$$

NDZ022-023-025-028>030-036>039-047>053-230500-
SOUTHEAST NORTH DAKOTA

CITY           SKY/WX    TMP DP  RH WIND       PRES   REMARKS
FARGO          LGT RAIN  35  33  92 NE8       29.67R
$$



USA.gov is the U.S. government's official web portal to all federal, state and local government web resources and services.